This is the latest recevied weather packets stored in our database for station/object LRAR. If no packets are shown the sender has not sent any weather packets the latest 1 day(s).
| Time | Temp. | Humidity | Pressure | Rain* | Wind** | Luminosity | Snow |
|---|---|---|---|---|---|---|---|
| 1836274084 | 15° C | 82% | 1026 hPa | - | 3.13 m/s, 140° | - | - |
| 1778037518 | 8.89° C | 82% | 1013 hPa | - | 2.24 m/s, 160° | - | - |
| 1778036618 | 8.89° C | 82% | 1013 hPa | - | 2.24 m/s, 160° | - | - |
| 1778035718 | 8.89° C | 82% | 1013 hPa | - | 0.89 m/s, 140° | - | - |
| 1778034818 | 8.89° C | 82% | 1013 hPa | - | 0.89 m/s, 140° | - | - |
| 1778033918 | 10° C | 76% | 1013 hPa | - | 0.89 m/s, 140° | - | - |
| 1778033018 | 10° C | 76% | 1013 hPa | - | 0.89 m/s, 140° | - | - |
| 1778030319 | 10° C | 76% | 1013 hPa | - | 2.24 m/s, 170° | - | - |
| 1778029418 | 10° C | 76% | 1013 hPa | - | 2.24 m/s, 170° | - | - |
| 1778028518 | 10° C | 71% | 1012 hPa | - | 3.13 m/s, 140° | - | - |
| 1778027699 | 10° C | 71% | 1012 hPa | - | 3.13 m/s, 140° | - | - |
| 1778026719 | 10° C | 71% | 1012 hPa | - | 1.34 m/s, 180° | - | - |
| 1778025819 | 10° C | 71% | 1012 hPa | - | 1.34 m/s, 180° | - | - |
| 1778024918 | 11.11° C | 67% | 1012 hPa | - | 0.89 m/s, 170° | - | - |
| 1778024018 | 11.11° C | 67% | 1012 hPa | - | 0.89 m/s, 170° | - | - |
| 1778021319 | 12.22° C | 58% | 1012 hPa | - | 1.34 m/s, 230° | - | - |
| 1778020418 | 12.22° C | 58% | 1012 hPa | - | 1.34 m/s, 230° | - | - |
| 1778019516 | 12.78° C | 59% | 1012 hPa | - | 1.34 m/s, 170° | - | - |
| 1778018619 | 12.78° C | 59% | 1012 hPa | - | 1.34 m/s, 170° | - | - |
| 1778017719 | 13.89° C | 59% | 1012 hPa | - | 2.68 m/s, 140° | - | - |
| 1778016819 | 13.89° C | 59% | 1012 hPa | - | 2.68 m/s, 140° | - | - |
| 1778015918 | 13.89° C | 55% | 1011 hPa | - | 2.24 m/s, 130° | - | - |
| 1778015018 | 13.89° C | 55% | 1011 hPa | - | 2.24 m/s, 130° | - | - |
| 1778012349 | 15° C | 55% | 1011 hPa | - | 0 m/s | - | - |
| 1778011419 | 15° C | 55% | 1011 hPa | - | 0 m/s | - | - |
* Rain since midnight (hover to see other rain measurements)
** Current wind speed in m/s (hover to see current wind gust speed)